Location: Unspecified
(0.0000°N, 0.0000°E)
Time: 04:18:12
(UTC+00:00)

ISS - Pass Details

Date: 12 May 2021
Orbit: 417 x 422 km, 51.6° (Epoch: 18 May)

Event Time Altitude Azimuth Distance (km) Brightness Sun altitude
Rises 18:59:05 0° 214° (SSW) 2,353 0.2 -14.9°
Reaches altitude 10° 19:01:11 10° 212° (SSW) 1,488 -0.8 -15.4°
Maximum altitude 19:04:31 79° 125° (SE) 426 -3.9 -16.1°
Enters shadow 19:07:24 13° 39° (NE) 1,302 -1.5 -16.8°
